Skip Page Navigation
NASA JPL Caltech
NASA Logo - Jet Propulsion Laboratory + View the NASA Portal
+ Center for Near-Earth Object Studies
JPL Home Earth Solar System Stars & Galaxies Technology
JPL Solar System Dynamics
BODIES ORBITS EPHEMERIDES TOOLS PHYSICAL DATA DISCOVERY FAQ SITE MAP
JPL Small-Body Database Browser
Search: [ help ]  
138095 (2000 DK79)
Classification: Amor [NEO]          SPK-ID: 2138095
Ephemeris | Orbit Diagram | Orbital Elements | Mission Design | Physical Parameters | Discovery Circumstances | Close-Approach Data ]

[ hide orbit diagram ]

For accurate long-term ephemerides, please instead use our Horizons system.This orbit viewer was implemented using two-body methods, and hence should not be used for determining accurate long-term trajectories (over several years or decades) or planetary encounter circumstances.


[ revert to old Java-based viewer ]

Orbital Elements at Epoch 2459000.5 (2020-May-31.0) TDB
Reference: JPL 116 (heliocentric ecliptic J2000)
 Element Value Uncertainty (1-sigma)   Units 
e .4143428423705121 5.2497e-08  
a 1.776662286444083 9.0073e-09 au
q 1.040514984746349 9.2683e-08 au
i 60.67830097990919 8.5738e-06 deg
node 43.46285831084897 2.3062e-06 deg
peri 2.546687126847698 7.7817e-06 deg
M 274.2097815994219 8.9073e-06 deg
tp 2459206.629915353717
(2020-Dec-23.12991535)
2.2883e-05 TDB
period 864.9793753973963
2.37
6.5779e-06
1.801e-08
d
yr
n .4161948946292571 3.165e-09 deg/d
Q 2.512809588141818 1.2739e-08 au
  Orbit Determination Parameters
   # obs. used (total)      503  
   # delay obs. used      3  
   # Doppler obs. used      1  
   data-arc span      12155 days (33.28 yr)  
   first obs. used      1986-04-09  
   last obs. used      2019-07-20  
   planetary ephem.      DE431  
   SB-pert. ephem.      SB431-N16  
   condition code      0  
   norm. resid. RMS      .56494  
   source      ORB  
   producer      Otto Matic  
   solution date      2019-Jul-22 06:09:43  

Additional Information
 Earth MOID = .0500597 au 
 Jupiter MOID = 2.91114 au 
 T_jup = 3.450 
[ show covariance matrix ]

Ephemeris | Orbit Diagram | Orbital Elements | Mission Design | Physical Parameters | Discovery Circumstances | Close-Approach Data ]

Physical Parameter Table
Parameter Symbol Value Units Sigma Reference Notes
absolute magnitude H 16.0   n/a MPO410786  
rotation period rot_per 4.243 h n/a LCDB (Rev. 2019-August); Warner et al., 2009 Published Reference List:
[Hicks, M.; Ebelhar, S. (2013) Astronomer's Telegram 5591. http://www.astronomerstelegram.org]
[Warner, B.D.; Stephens, R.D.; Pray, D.P. (2014) Minor Planet Bull. 41, 75-76.]

138095 (2000 DK79)          Discovered 2000-Feb-26 by LINEAR at Socorro
Reference: 20061205/Numbers.arcLast Updated: 2006-12-13

[ hide close-approach data ]
Close-Approach Data   ...sorted by Date/Time (TDB)
Date/Time (TDB) Time Uncertainty
(days_HH:MM)
Body Nominal Distance (au) Minimum Distance (au) Maximum Distance (au) V-relative (km/s) V-infinity (km/s) JD (TDB) Time Uncertainty (minutes) Semi-major axis (km) Semi-minor axis (km) range-LOV angle (deg) N-sigma BP Orbit Ref. Reference Modified
1904-Nov-21 18:07 < 00:01 Earth 0.449247288642668 0.449240170615666 0.449254406703813 34.9878956670855 34.9877261513098 2416806.254688771 0.38571973496565 405.208006275204 15.5997943932847 28.8641194110536 2072874.00520185 T 116 CATAB v2.0e-lin.ifort 2019-Jul-22 06:09:47 2019-Jul-22 06:09
1916-Oct-18 20:42 < 00:01 Earth 0.4618978653714 0.461890429215297 0.461905301536402 35.0163024079834 35.0161376687127 2421155.362548682 0.42292871731328 384.374707991699 13.8522079961144 -15.2765938312064 1312346.29986611 T 116 CATAB v2.0e-lin.ifort 2019-Jul-22 06:09:47 2019-Jul-22 06:09
1923-Nov-11 22:13 < 00:01 Earth 0.167343360933317 0.167335877965893 0.167350843977923 33.2150848184505 33.2146054475826 2423735.425688249 0.418968217804212 414.01004095653 14.2640752132113 25.6869411533333 764201.962806369 T 116 CATAB v2.0e-lin.ifort 2019-Jul-22 06:09:47 2019-Jul-22 06:09
1942-Oct-31 23:50 < 00:01 Earth 0.139792729548547 0.139785795984212 0.139799663196588 33.0987201921842 33.0981443276289 2430664.493174685 0.403937302700885 385.600900222133 13.6672501719935 -26.296055756701 680436.126670947 T 116 CATAB v2.0e-lin.ifort 2019-Jul-22 06:09:47 2019-Jul-22 06:09
1949-Nov-23 09:45 < 00:01 Earth 0.481017365563507 0.48101061597872 0.481024115178945 35.2752381863052 35.2750811563116 2433243.906364012 0.366681407756876 387.305318229187 15.8613739734388 29.6827902264744 2235987.72269067 T 116 CATAB v2.0e-lin.ifort 2019-Jul-22 06:09:47 2019-Jul-22 06:09
1961-Oct-19 21:16 < 00:01 Earth 0.445773932593735 0.445768030213902 0.445779834979421 34.9060017654134 34.9058305280047 2437592.386421907 0.334927075041183 305.180160975613 13.822518692757 -15.3418345208851 1281655.90563839 T 116 CATAB v2.0e-lin.ifort 2019-Jul-22 06:09:47 2019-Jul-22 06:09
1968-Nov-11 12:14 < 00:01 Earth 0.170445950095203 0.170440674062678 0.170451226164303 33.216712282191 33.2162416603243 2440172.009478773 0.294874283366197 291.146619877544 14.2665535710565 25.3903411994777 771975.504329726 T 116 CATAB v2.0e-lin.ifort 2019-Jul-22 06:09:47 2019-Jul-22 06:09
1987-Oct-31 15:20 < 00:01 Earth 0.158779745980902 0.15877649337837 0.158782998596141 33.1928493634867 33.1923437996206 2447100.138758393 0.186952356146047 177.084825606024 13.6871973020128 -23.739577976731 709934.702750247 T 116 CATAB v2.0e-lin.ifort 2019-Jul-22 06:09:47 2019-Jul-22 06:09
1994-Nov-22 23:37 < 00:01 Earth 0.456147905001558 0.456145465969772 0.456150344037415 35.0492696363859 35.049102977401 2449679.483992054 0.132576163952333 139.594510368738 15.4170876884284 29.5921993369083 2213685.42432291 T 116 CATAB v2.0e-lin.ifort 2019-Jul-22 06:09:47 2019-Jul-22 06:09
2006-Oct-18 18:39 < 00:01 Earth 0.483597471278693 0.483596552780461 0.483598389777034 35.3322268770877 35.3320709368171 2454027.277152487 0.0572323204976993 47.3968858546951 14.0220303927988 -15.6228595558509 2003780.66418072 T 116 CATAB v2.0e-lin.ifort 2019-Jul-22 06:09:47 2019-Jul-22 06:09
2013-Nov-10 05:26 < 00:01 Earth 0.126035883772778 0.12603580430026 0.12603596324544 33.102123531109 33.1014848758684 2456606.726644258 0.00937059690889578 16.9928435049468 3.61188829455328 84.3644390200913 4942585.26092895 T 116 CATAB v2.0e-lin.ifort 2019-Jul-22 06:09:47 2019-Jul-22 06:09
2032-Oct-28 17:15 < 00:01 Earth 0.218716697559406 0.218714214134037 0.218719180987934 33.4576756181721 33.4573115044771 2463534.218536573 0.138162073411467 130.671969672325 13.5565480557048 -18.7162127185918 809826.575866757 T 116 CATAB v2.0e-lin.ifort 2019-Jul-22 06:09:47 2019-Jul-22 06:09
2039-Nov-20 22:28 < 00:01 Earth 0.390024445081856 0.390021096796502 0.390027793374747 34.4895164209366 34.4893183436532 2466113.436431867 0.183296688615229 187.780690043257 14.918684071131 27.3267380188942 1810375.70190637 T 116 CATAB v2.0e-lin.ifort 2019-Jul-22 06:09:47 2019-Jul-22 06:09
2058-Nov-08 00:09 < 00:01 Earth 0.0653670377858968 0.0653632034459516 0.0653708724332704 33.0046339147615 33.0033988584539 2473040.506130056 0.305908051262393 294.624637832454 14.020501631377 49.6101801825877 532710.026169657 T 116 CATAB v2.0e-lin.ifort 2019-Jul-22 06:09:47 2019-Jul-22 06:09
2077-Oct-26 20:32 < 00:01 Earth 0.276468842107606 0.276460910971592 0.27647677326512 33.8036646106635 33.8033795060727 2479968.355460094 0.442748097210026 413.772002761439 13.5893275259257 -17.1031387335928 898100.610000971 T 116 CATAB v2.0e-lin.ifort 2019-Jul-22 06:09:47 2019-Jul-22 06:09
2084-Nov-18 09:51 < 00:01 Earth 0.336526232531371 0.336517524423355 0.336534940690731 34.096788887802 34.0965566775278 2482547.910286972 0.474572667514896 481.237245266577 14.577917272661 25.5453570222217 1490558.21229799 T 116 CATAB v2.0e-lin.ifort 2019-Jul-22 06:09:47 2019-Jul-22 06:09
2103-Nov-07 23:09 < 00:01 Earth 0.047754834016431 0.0477537693386406 0.0477559010421534 32.9914004596101 32.9897092190045 2489475.464317324 0.574090161467348 549.716624943319 13.9211654546842 84.6442062721075 511921.276914571 T 116 CATAB v2.0e-lin.ifort 2019-Jul-22 06:09:47 2019-Jul-22 06:09
2122-Oct-26 11:42 00:01 Earth 0.322627986238668 0.322602785272171 0.322653187372622 34.1142909144708 34.114048825217 2496402.987458814 1.41469245145222 1309.04060258702 13.625114493003 -16.2619880127088 988564.591014869 T 116 CATAB v2.0e-lin.ifort 2019-Jul-22 06:09:47 2019-Jul-22 06:09
2129-Nov-18 01:30 00:02 Earth 0.288560375811877 0.288529810567054 0.288590941704791 33.8074901129088 33.8072169860019 2498982.562610689 1.67312210867924 1669.79138178604 14.3731918119114 24.1062026435089 1227276.04033422 T 116 CATAB v2.0e-lin.ifort 2019-Jul-22 06:09:47 2019-Jul-22 06:09
2148-Nov-05 16:40 00:02 Earth 0.06139327479498 0.061364114899438 0.0614224544913677 33.0528195474143 33.0515064659494 2505910.194342123 2.38832683893681 2266.94058758444 13.8330216490605 -50.0863989692446 510087.770020114 T 116 CATAB v2.0e-lin.ifort 2019-Jul-22 06:09:47 2019-Jul-22 06:09
2167-Oct-23 20:32 00:03 Earth 0.399526118577186 0.399467877961437 0.399584359789221 34.7225665336957 34.7223744650107 2512836.355587025 3.30068890983396 3004.49564715483 13.7578330624145 -14.8434549724091 1105002.81678737 T 116 CATAB v2.0e-lin.ifort 2019-Jul-22 06:09:47 2019-Jul-22 06:09
2174-Nov-15 03:03 00:04 Earth 0.19954698979347 0.199483760766599 0.199610222505444 33.3539001282342 33.3534997936051 2515415.627307368 3.50354223281871 3430.80609448116 14.1935681223319 23.2133100398395 830354.780818591 T 116 CATAB v2.0e-lin.ifort 2019-Jul-22 06:09:47 2019-Jul-22 06:09
2193-Nov-01 18:11 00:04 Earth 0.16252899412771 0.162458361322232 0.162599631723836 33.3080031712677 33.3075109774882 2522342.257772268 4.0340127814142 3787.17881936006 13.6703372540101 -21.5565324778111 653784.882193579 T 116 CATAB v2.0e-lin.ifort 2019-Jul-22 06:09:47 2019-Jul-22 06:09
2200-Nov-24 19:01 00:04 Earth 0.437175940941836 0.437104001159849 0.437247884039312 34.8375520472932 34.8373770990591 2524921.292631559 3.93295750393598 4058.81155479373 15.1371199134845 27.888540214477 2010571.85376889 T 116 CATAB v2.0e-lin.ifort 2019-Jul-22 06:09:47 2019-Jul-22 06:09
Ephemeris | Orbit Diagram | Orbital Elements | Mission Design | Physical Parameters | Discovery Circumstances | Close-Approach Data ]
ABOUT SSD CREDITS/AWARDS PRIVACY/COPYRIGHT GLOSSARY LINKS
FirstGov 2020-Oct-31 06:13 UT
(server date/time)  
NASA Home Page
Site Manager:   Ryan S. Park
Webmaster  Alan B. Chamberlin